Dew Point Data


Current

Temp 64.0 F. Dew Point 63.0 F.


Dew Point Comfort Scale

dewpoints

Date, Time Temperature Dew Point
Wed Apr 17 01:08:05 2019 60.0 F. 51.1 F.
Wed Apr 17 02:08:05 2019 59.0 F. 51.1 F.
Wed Apr 17 03:08:05 2019 64.0 F. 50.0 F.
Wed Apr 17 04:08:06 2019 64.0 F. 50.0 F.
Wed Apr 17 05:08:05 2019 64.0 F. 50.0 F.
Wed Apr 17 06:08:04 2019 62.0 F. 50.0 F.
Wed Apr 17 07:08:05 2019 60.0 F. 51.1 F.
Wed Apr 17 08:08:06 2019 61.0 F. 51.1 F.
Wed Apr 17 09:08:05 2019 64.0 F. 53.1 F.
Wed Apr 17 10:09:00 2019
Wed Apr 17 11:08:37 2019
Wed Apr 17 12:09:00 2019
Wed Apr 17 13:08:15 2019 75.0 F. 51.1 F.
Wed Apr 17 14:08:14 2019 76.0 F. 55.0 F.
Wed Apr 17 15:08:15 2019 75.0 F. 52.0 F.
Wed Apr 17 16:08:16 2019 75.0 F. 57.0 F.
Wed Apr 17 17:08:15 2019 71.0 F. 57.0 F.
Wed Apr 17 18:08:33 2019 70.0 F. 57.9 F.
Wed Apr 17 19:08:15 2019 70.0 F. 57.9 F.
Wed Apr 17 20:08:08 2019 69.0 F. 60.1 F.
Wed Apr 17 21:08:05 2019 69.0 F. 59.0 F.
Wed Apr 17 22:08:05 2019 69.0 F. 59.0 F.
Wed Apr 17 23:08:05 2019 68.0 F. 59.0 F.
Thu Apr 18 00:08:05 2019 68.0 F. 59.0 F.
Thu Apr 18 01:08:05 2019 68.0 F. 59.0 F.
Thu Apr 18 02:08:05 2019 67.0 F. 60.1 F.
Thu Apr 18 03:08:10 2019 66.0 F. 60.1 F.
Thu Apr 18 04:08:04 2019 66.0 F. 59.0 F.
Thu Apr 18 05:08:32 2019
Thu Apr 18 06:08:05 2019 63.0 F. 61.0 F.
Thu Apr 18 07:08:05 2019 62.0 F. 61.0 F.
Thu Apr 18 08:08:05 2019 62.0 F. 60.1 F.
Thu Apr 18 09:08:06 2019 62.0 F. 60.1 F.
Thu Apr 18 10:08:05 2019 62.0 F. 61.0 F.
Thu Apr 18 11:08:05 2019 62.0 F. 61.0 F.
Thu Apr 18 12:08:08 2019 63.0 F. 60.8 F.
Thu Apr 18 13:08:06 2019 63.0 F. 60.8 F.
Thu Apr 18 14:08:05 2019 63.0 F. 60.8 F.
Thu Apr 18 15:08:05 2019 52.0 F. 50.0 F.
Thu Apr 18 16:08:05 2019 52.0 F. 50.0 F.
Thu Apr 18 17:08:05 2019 52.0 F. 48.2 F.
Thu Apr 18 18:08:05 2019 52.0 F. 48.2 F.
Thu Apr 18 19:08:05 2019 52.0 F. 48.2 F.
Thu Apr 18 20:08:05 2019 52.0 F. 48.2 F.
Thu Apr 18 21:08:05 2019 52.0 F. 48.2 F.
Thu Apr 18 22:08:05 2019 52.0 F. 48.2 F.
Thu Apr 18 23:08:06 2019 52.0 F. 48.2 F.
Fri Apr 19 00:08:04 2019 52.0 F. 48.2 F.
Fri Apr 19 01:08:06 2019 52.0 F. 48.2 F.
Fri Apr 19 02:08:05 2019 52.0 F. 48.2 F.
Fri Apr 19 03:08:05 2019 52.0 F. 48.2 F.
Fri Apr 19 04:08:05 2019 52.0 F. 48.2 F.
Fri Apr 19 05:08:05 2019 52.0 F. 48.2 F.
Fri Apr 19 06:08:05 2019 52.0 F. 48.2 F.
Fri Apr 19 07:08:06 2019 45.0 F. 41.0 F.
Fri Apr 19 08:08:05 2019 45.0 F. 41.0 F.
Fri Apr 19 09:08:05 2019 45.0 F. 41.0 F.
Fri Apr 19 10:08:05 2019 45.0 F. 42.8 F.
Fri Apr 19 11:08:04 2019 45.0 F. 41.0 F.
Fri Apr 19 12:08:05 2019 46.0 F. 39.2 F.
Fri Apr 19 13:08:05 2019 46.0 F. 39.2 F.
Fri Apr 19 14:08:04 2019 46.0 F. 39.2 F.
Fri Apr 19 15:08:05 2019 46.0 F. 39.2 F.
Fri Apr 19 16:08:05 2019 46.0 F. 39.2 F.
Fri Apr 19 17:08:04 2019 46.0 F. 39.2 F.
Fri Apr 19 18:08:05 2019 46.0 F. 39.2 F.
Fri Apr 19 19:08:05 2019 46.0 F. 39.2 F.
Fri Apr 19 20:08:06 2019 52.0 F. 39.2 F.
Fri Apr 19 21:08:05 2019 52.0 F. 39.2 F.
Fri Apr 19 22:08:05 2019 48.0 F. 39.2 F.
Fri Apr 19 23:08:06 2019 46.0 F. 35.6 F.
Sat Apr 20 00:08:05 2019 46.0 F. 35.6 F.
Sat Apr 20 01:08:05 2019 45.0 F. 30.2 F.
Sat Apr 20 02:08:05 2019 45.0 F. 30.2 F.
Sat Apr 20 03:08:04 2019 43.0 F. 28.4 F.
Sat Apr 20 04:08:05 2019 43.0 F. 28.4 F.
Sat Apr 20 05:08:05 2019 43.0 F. 26.6 F.
Sat Apr 20 06:08:06 2019 41.0 F. 28.4 F.
Sat Apr 20 07:08:05 2019 41.0 F. 30.2 F.
Sat Apr 20 08:08:05 2019 45.0 F. 30.2 F.
Sat Apr 20 09:08:05 2019 45.0 F. 30.2 F.
Sat Apr 20 10:08:05 2019 50.0 F. 32.0 F.
Sat Apr 20 11:08:05 2019 54.0 F. 42.8 F.
Sat Apr 20 12:08:05 2019 57.0 F. 35.6 F.
Sat Apr 20 13:08:40 2019
Sat Apr 20 14:08:06 2019 64.0 F. 30.2 F.
Sat Apr 20 15:08:05 2019 63.0 F. 30.2 F.
Sat Apr 20 16:08:06 2019 64.0 F. 30.2 F.
Sat Apr 20 17:08:05 2019 64.0 F. 30.2 F.
Sat Apr 20 18:08:05 2019 64.0 F. 28.4 F.
Sat Apr 20 19:08:06 2019 63.0 F. 30.2 F.
Sat Apr 20 20:08:05 2019 59.0 F. 28.4 F.
Sat Apr 20 21:08:05 2019 52.0 F. 33.8 F.
Sat Apr 20 22:08:05 2019 52.0 F. 33.8 F.
Sat Apr 20 23:08:04 2019 52.0 F. 33.8 F.
Sun Apr 21 00:08:05 2019 45.0 F. 37.4 F.
Sun Apr 21 01:08:06 2019 43.0 F. 37.4 F.
Sun Apr 21 02:08:05 2019 39.0 F. 35.6 F.
Sun Apr 21 03:08:05 2019 39.0 F. 37.4 F.
Sun Apr 21 04:08:04 2019 39.0 F. 37.4 F.
Sun Apr 21 05:08:05 2019 39.0 F. 35.6 F.
Sun Apr 21 06:08:05 2019 37.0 F. 35.6 F.
Sun Apr 21 07:08:05 2019 39.0 F. 37.4 F.
Sun Apr 21 08:08:05 2019 48.0 F. 39.2 F.
Sun Apr 21 09:08:05 2019 57.0 F. 42.8 F.
Sun Apr 21 10:08:05 2019 64.0 F. 37.4 F.
Sun Apr 21 11:08:06 2019 70.0 F. 37.4 F.
Sun Apr 21 12:08:40 2019
Sun Apr 21 13:08:18 2019 73.0 F. 42.8 F.
Sun Apr 21 14:08:05 2019 75.0 F. 42.8 F.
Sun Apr 21 15:08:05 2019 75.0 F. 44.6 F.
Sun Apr 21 16:08:05 2019 75.0 F. 44.6 F.
Sun Apr 21 17:08:05 2019 75.0 F. 44.6 F.
Sun Apr 21 18:08:06 2019 75.0 F. 44.6 F.
Sun Apr 21 19:08:05 2019 72.0 F. 46.4 F.
Sun Apr 21 20:08:05 2019 64.0 F. 44.6 F.
Sun Apr 21 21:08:06 2019 63.0 F. 44.6 F.
Sun Apr 21 22:08:05 2019 61.0 F. 46.4 F.
Sun Apr 21 23:08:05 2019 59.0 F. 46.4 F.
Mon Apr 22 00:08:05 2019 59.0 F. 46.4 F.
Mon Apr 22 01:08:05 2019 54.0 F. 46.4 F.
Mon Apr 22 02:08:04 2019 54.0 F. 46.4 F.
Mon Apr 22 03:08:05 2019 55.0 F. 46.4 F.
Mon Apr 22 04:08:05 2019 55.0 F. 46.4 F.
Mon Apr 22 05:08:06 2019 54.0 F. 44.6 F.
Mon Apr 22 06:08:05 2019 52.0 F. 46.4 F.
Mon Apr 22 07:08:05 2019 54.0 F. 48.2 F.
Mon Apr 22 08:08:05 2019 57.0 F. 50.0 F.
Mon Apr 22 09:08:06 2019 61.0 F. 51.8 F.
Mon Apr 22 10:08:05 2019 68.0 F. 51.8 F.
Mon Apr 22 11:08:05 2019 72.0 F. 53.6 F.
Mon Apr 22 12:08:06 2019 75.0 F. 55.4 F.
Mon Apr 22 13:08:05 2019 77.0 F. 53.6 F.
Mon Apr 22 14:08:05 2019 79.0 F. 51.8 F.
Mon Apr 22 15:08:27 2019 79.0 F. 51.8 F.
Mon Apr 22 16:08:20 2019 78.0 F. 53.1 F.
Mon Apr 22 17:08:44 2019
Mon Apr 22 18:09:00 2019
Mon Apr 22 19:08:15 2019 72.0 F. 55.0 F.
Mon Apr 22 20:08:15 2019 69.0 F. 53.1 F.
Mon Apr 22 21:08:15 2019 68.0 F. 53.1 F.
Mon Apr 22 22:08:16 2019 69.0 F. 52.0 F.
Mon Apr 22 23:08:16 2019 68.0 F. 52.0 F.
Tue Apr 23 00:08:15 2019 68.0 F. 52.0 F.
Tue Apr 23 01:08:16 2019 68.0 F. 51.1 F.
Tue Apr 23 02:09:00 2019
Tue Apr 23 03:08:15 2019 65.0 F. 51.1 F.
Tue Apr 23 04:08:29 2019 64.0 F. 52.0 F.
Tue Apr 23 05:09:00 2019
Tue Apr 23 06:08:29 2019 60.0 F. 52.0 F.
Tue Apr 23 07:08:15 2019 61.0 F. 53.1 F.
Tue Apr 23 08:08:15 2019 64.0 F. 55.0 F.
Tue Apr 23 09:08:15 2019 68.0 F. 57.0 F.
Tue Apr 23 10:08:20 2019 68.0 F. 57.0 F.
Tue Apr 23 11:08:15 2019 70.0 F. 59.0 F.
Tue Apr 23 12:08:23 2019 72.0 F. 60.1 F.
Tue Apr 23 13:09:00 2019
Tue Apr 23 14:09:00 2019
Tue Apr 23 15:09:00 2019
Tue Apr 23 16:09:00 2019
Tue Apr 23 17:08:15 2019 74.0 F. 63.0 F.
Tue Apr 23 18:08:15 2019 69.0 F. 63.0 F.
Tue Apr 23 19:08:16 2019 63.0 F. 61.0 F.
Tue Apr 23 20:09:00 2019
Tue Apr 23 21:09:00 2019
Tue Apr 23 22:09:00 2019
Tue Apr 23 23:09:00 2019
Wed Apr 24 00:08:15 2019 60.0 F. 57.9 F.
Wed Apr 24 01:08:16 2019 60.0 F. 57.0 F.
Wed Apr 24 02:08:15 2019 59.0 F. 55.9 F.
Wed Apr 24 03:08:14 2019 58.0 F. 55.9 F.
Wed Apr 24 04:08:15 2019 57.0 F. 55.9 F.
Wed Apr 24 05:08:15 2019 56.0 F. 55.0 F.
Wed Apr 24 06:08:15 2019 55.0 F. 55.0 F.
Wed Apr 24 07:08:15 2019 57.0 F. 55.9 F.
Wed Apr 24 08:09:00 2019
Wed Apr 24 09:08:15 2019 63.0 F. 59.0 F.
Wed Apr 24 10:08:15 2019 68.0 F. 61.0 F.
Wed Apr 24 11:08:15 2019 70.0 F. 61.0 F.
Wed Apr 24 12:08:15 2019 72.0 F. 61.0 F.
Wed Apr 24 13:08:15 2019 72.0 F. 61.0 F.
Wed Apr 24 14:08:15 2019 70.0 F. 64.0 F.
Wed Apr 24 15:09:00 2019
Wed Apr 24 16:09:00 2019
Wed Apr 24 17:08:59 2019
Wed Apr 24 18:09:00 2019
Wed Apr 24 19:08:15 2019 64.0 F. 63.0 F.
Wed Apr 24 20:08:37 2019
Wed Apr 24 21:08:54 2019
Wed Apr 24 22:08:29 2019 63.0 F. 62.1 F.
Wed Apr 24 23:08:29 2019 62.0 F. 62.1 F.
Thu Apr 25 00:08:15 2019 62.0 F. 61.0 F.
Thu Apr 25 01:08:15 2019 62.0 F. 61.0 F.
Thu Apr 25 02:08:14 2019 62.0 F. 61.0 F.
Thu Apr 25 03:08:14 2019 61.0 F. 61.0 F.
Thu Apr 25 04:08:15 2019 61.0 F. 61.0 F.
Thu Apr 25 05:08:15 2019 61.0 F. 61.0 F.
Thu Apr 25 06:08:15 2019 61.0 F. 61.0 F.
Thu Apr 25 07:08:15 2019 61.0 F. 61.0 F.
Thu Apr 25 08:09:00 2019
Thu Apr 25 09:09:00 2019
Thu Apr 25 10:08:15 2019 63.0 F. 62.1 F.
Thu Apr 25 11:08:15 2019 64.0 F. 63.0 F.
Thu Apr 25 12:08:15 2019 64.0 F. 63.0 F.
Thu Apr 25 13:08:15 2019 65.0 F. 63.0 F.
Thu Apr 25 14:08:15 2019 64.0 F. 63.0 F.
Thu Apr 25 15:08:15 2019 66.0 F. 64.0 F.
Thu Apr 25 16:08:15 2019 64.0 F. 64.0 F.
Thu Apr 25 17:08:15 2019 64.0 F. 63.0 F.
Thu Apr 25 18:08:15 2019 60.0 F. 57.9 F.
Thu Apr 25 19:08:15 2019 58.0 F. 57.0 F.
Thu Apr 25 20:08:15 2019 58.0 F. 57.0 F.
Thu Apr 25 21:08:15 2019 57.0 F. 55.9 F.
Thu Apr 25 22:08:15 2019 57.0 F. 55.0 F.
Thu Apr 25 23:08:15 2019 56.0 F. 55.0 F.
Fri Apr 26 00:08:14 2019 58.0 F. 55.0 F.
Fri Apr 26 01:08:15 2019 58.0 F. 55.0 F.
Fri Apr 26 02:08:15 2019 56.0 F. 51.1 F.
Fri Apr 26 03:08:16 2019 53.0 F. 48.9 F.
Fri Apr 26 04:08:15 2019 52.0 F. 48.0 F.
Fri Apr 26 05:08:15 2019 51.0 F. 46.9 F.
Fri Apr 26 06:08:14 2019 50.0 F. 46.9 F.
Fri Apr 26 07:08:15 2019 50.0 F. 46.0 F.
Fri Apr 26 08:08:15 2019 53.0 F. 45.0 F.
Fri Apr 26 09:08:15 2019 56.0 F. 45.0 F.
Fri Apr 26 10:08:14 2019 60.0 F. 43.0 F.
Fri Apr 26 11:08:29 2019 62.0 F. 39.9 F.
Fri Apr 26 12:09:00 2019
Fri Apr 26 13:09:00 2019
Fri Apr 26 14:09:00 2019
Fri Apr 26 15:08:59 2019
Fri Apr 26 16:09:00 2019
Fri Apr 26 17:08:05 2019 66.0 F. 35.1 F.
Fri Apr 26 18:08:05 2019 65.0 F. 36.0 F.
Fri Apr 26 19:08:05 2019 64.0 F. 36.0 F.
Fri Apr 26 20:08:06 2019 59.0 F. 39.0 F.
Fri Apr 26 21:08:05 2019 53.0 F. 44.1 F.
Fri Apr 26 22:08:40 2019
Fri Apr 26 23:08:15 2019 46.0 F. 43.0 F.
Sat Apr 27 00:08:15 2019 49.0 F. 43.0 F.
Sat Apr 27 01:08:16 2019 49.0 F. 46.0 F.
Sat Apr 27 02:08:15 2019 49.0 F. 46.9 F.
Sat Apr 27 03:08:15 2019 49.0 F. 46.0 F.
Sat Apr 27 04:08:15 2019 50.0 F. 46.0 F.
Sat Apr 27 05:08:14 2019 50.0 F. 46.9 F.
Sat Apr 27 06:08:16 2019 50.0 F. 46.0 F.
Sat Apr 27 07:08:15 2019 51.0 F. 45.0 F.
Sat Apr 27 08:08:16 2019 54.0 F. 45.0 F.
Sat Apr 27 09:08:15 2019 56.0 F. 42.1 F.
Sat Apr 27 10:08:35 2019 56.0 F. 44.1 F.
Sat Apr 27 11:09:00 2019
Sat Apr 27 12:09:00 2019
Sat Apr 27 13:09:00 2019
Sat Apr 27 14:09:00 2019
Sat Apr 27 15:09:00 2019
Sat Apr 27 16:09:00 2019
Sat Apr 27 17:08:30 2019 73.0 F. 53.1 F.
Sat Apr 27 18:08:59 2019
Sat Apr 27 19:08:15 2019 71.0 F. 55.0 F.
Sat Apr 27 20:08:16 2019 70.0 F. 55.9 F.
Sat Apr 27 21:08:15 2019 69.0 F. 57.0 F.
Sat Apr 27 22:08:15 2019 69.0 F. 57.9 F.
Sat Apr 27 23:08:15 2019 65.0 F. 53.1 F.
Sun Apr 28 00:08:15 2019 60.0 F. 48.0 F.
Sun Apr 28 01:08:16 2019 55.0 F. 46.9 F.
Sun Apr 28 02:08:15 2019 51.0 F. 44.1 F.
Sun Apr 28 03:08:15 2019 48.0 F. 42.1 F.
Sun Apr 28 04:08:14 2019 44.0 F. 41.0 F.
Sun Apr 28 05:08:15 2019 43.0 F. 37.0 F.
Sun Apr 28 06:08:15 2019 41.0 F. 36.0 F.
Sun Apr 28 07:08:14 2019 42.0 F. 37.0 F.
Sun Apr 28 08:08:15 2019 42.0 F. 37.0 F.
Sun Apr 28 09:08:15 2019 42.0 F. 36.0 F.
Sun Apr 28 10:08:07 2019 43.0 F. 37.0 F.
Sun Apr 28 11:08:05 2019 43.0 F. 37.0 F.
Sun Apr 28 12:08:05 2019 48.0 F. 37.9 F.
Sun Apr 28 13:08:05 2019 50.0 F. 39.9 F.
Sun Apr 28 14:08:41 2019
Sun Apr 28 15:08:06 2019 56.0 F. 43.0 F.
Sun Apr 28 16:08:26 2019 58.0 F. 44.1 F.
Sun Apr 28 17:08:04 2019 59.0 F. 44.1 F.
Sun Apr 28 18:08:05 2019 58.0 F. 44.1 F.
Sun Apr 28 19:08:05 2019 57.0 F. 44.1 F.
Sun Apr 28 20:08:05 2019 54.0 F. 44.1 F.
Sun Apr 28 21:08:05 2019 51.0 F. 44.1 F.
Sun Apr 28 22:08:05 2019 51.0 F. 44.1 F.
Sun Apr 28 23:08:05 2019 49.0 F. 46.0 F.
Mon Apr 29 00:08:06 2019 50.0 F. 45.0 F.
Mon Apr 29 01:08:05 2019 50.0 F. 45.0 F.
Mon Apr 29 02:08:04 2019 51.0 F. 45.0 F.
Mon Apr 29 03:08:05 2019 51.0 F. 46.0 F.
Mon Apr 29 04:08:04 2019 51.0 F. 45.0 F.
Mon Apr 29 05:08:05 2019 51.0 F. 46.0 F.
Mon Apr 29 06:08:05 2019 50.0 F. 46.0 F.
Mon Apr 29 07:08:05 2019 51.0 F. 46.0 F.
Mon Apr 29 08:08:06 2019 55.0 F. 48.9 F.
Mon Apr 29 09:08:06 2019 56.0 F. 50.0 F.
Mon Apr 29 10:08:05 2019 56.0 F. 50.0 F.
Mon Apr 29 11:08:06 2019 59.0 F. 54.0 F.
Mon Apr 29 12:09:00 2019
Mon Apr 29 13:08:14 2019 73.0 F. 60.1 F.
Mon Apr 29 14:08:15 2019 76.0 F. 59.0 F.
Mon Apr 29 15:08:14 2019 78.0 F. 60.1 F.
Mon Apr 29 16:08:14 2019 78.0 F. 60.1 F.
Mon Apr 29 17:08:16 2019 76.0 F. 57.0 F.
Mon Apr 29 18:08:15 2019 75.0 F. 59.0 F.
Mon Apr 29 19:08:15 2019 75.0 F. 59.0 F.
Mon Apr 29 20:08:15 2019 70.0 F. 61.0 F.
Mon Apr 29 21:08:15 2019 68.0 F. 62.1 F.
Mon Apr 29 22:08:15 2019 66.0 F. 63.0 F.
Mon Apr 29 23:08:15 2019 66.0 F. 63.0 F.
Tue Apr 30 00:08:15 2019 64.0 F. 63.0 F.
Tue Apr 30 01:08:29 2019 63.0 F. 62.1 F.
Tue Apr 30 02:08:43 2019 78.0 F. 60.1 F.
Tue Apr 30 03:09:00 2019
Tue Apr 30 04:09:00 2019
Tue Apr 30 05:09:00 2019
Tue Apr 30 06:09:00 2019
Tue Apr 30 07:09:00 2019
Tue Apr 30 08:08:15 2019 63.0 F. 62.1 F.
Tue Apr 30 09:08:15 2019 70.0 F. 61.0 F.
Tue Apr 30 10:08:16 2019 73.0 F. 64.9 F.
Tue Apr 30 11:08:16 2019 63.0 F. 60.1 F.
Tue Apr 30 12:08:15 2019 66.0 F. 63.0 F.
Tue Apr 30 13:08:16 2019 79.0 F. 70.0 F.
Tue Apr 30 14:08:15 2019 81.0 F. 69.1 F.
Tue Apr 30 15:08:16 2019 81.0 F. 69.1 F.
Tue Apr 30 16:08:15 2019 79.0 F. 66.0 F.
Tue Apr 30 17:08:15 2019 80.0 F. 66.9 F.
Tue Apr 30 18:08:15 2019 77.0 F. 66.9 F.
Tue Apr 30 19:08:08 2019 77.0 F. 63.0 F.
Tue Apr 30 20:08:06 2019 77.0 F. 66.9 F.
Tue Apr 30 20:53:58 2019 76.0 F. 61.0 F.
Tue Apr 30 21:08:04 2019 76.0 F. 61.0 F.
Tue Apr 30 22:08:05 2019 73.0 F. 62.1 F.
Tue Apr 30 23:08:05 2019 73.0 F. 62.1 F.
Wed May 1 00:08:05 2019 73.0 F. 61.0 F.
Wed May 1 01:08:24 2019 73.0 F. 59.0 F.
Wed May 1 02:08:40 2019
Wed May 1 03:08:40 2019
Wed May 1 04:08:40 2019
Wed May 1 05:08:40 2019
Wed May 1 06:08:40 2019
Wed May 1 07:08:40 2019
Wed May 1 08:08:04 2019 62.0 F. 60.1 F.
Wed May 1 09:08:05 2019 63.0 F. 61.0 F.
Wed May 1 10:08:05 2019 65.0 F. 61.0 F.
Wed May 1 11:08:05 2019 65.0 F. 61.0 F.
Wed May 1 12:08:06 2019 64.0 F. 60.1 F.
Wed May 1 13:08:05 2019 64.0 F. 60.1 F.
Wed May 1 14:08:05 2019 64.0 F. 61.0 F.
Wed May 1 15:08:05 2019 65.0 F. 62.1 F.
Wed May 1 16:08:05 2019 66.0 F. 61.0 F.
Wed May 1 17:08:05 2019 69.0 F. 63.0 F.
Wed May 1 18:08:05 2019 69.0 F. 62.1 F.
Wed May 1 19:08:05 2019 69.0 F. 62.1 F.
Wed May 1 20:08:05 2019 69.0 F. 63.0 F.
Wed May 1 21:08:05 2019 69.0 F. 62.1 F.
Wed May 1 22:08:05 2019 60.0 F. 59.0 F.
Wed May 1 23:08:05 2019 60.0 F. 59.0 F.
Thu May 2 00:08:05 2019 62.0 F. 61.0 F.
Thu May 2 01:08:05 2019 59.0 F. 59.0 F.
Thu May 2 02:08:05 2019 60.0 F. 59.0 F.
Thu May 2 03:08:05 2019 60.0 F. 59.0 F.
Thu May 2 04:08:05 2019 60.0 F. 59.0 F.
Thu May 2 05:08:04 2019 60.0 F. 59.0 F.
Thu May 2 06:08:05 2019 62.0 F. 61.0 F.
Thu May 2 07:08:05 2019 63.0 F. 62.1 F.
Thu May 2 08:08:05 2019 60.0 F. 59.0 F.
Thu May 2 09:08:05 2019 63.0 F. 62.1 F.
Thu May 2 10:08:07 2019 63.0 F. 62.1 F.
Thu May 2 11:08:07 2019 64.0 F. 63.0 F.
Thu May 2 12:08:05 2019 64.0 F. 63.0 F.
Thu May 2 13:08:05 2019 64.0 F. 63.0 F.
Thu May 2 14:08:06 2019 66.0 F. 64.0 F.
Thu May 2 15:08:05 2019 66.0 F. 64.0 F.
Thu May 2 16:08:05 2019 69.0 F. 64.9 F.
Thu May 2 17:08:05 2019 69.0 F. 64.0 F.
Thu May 2 18:08:05 2019 69.0 F. 64.9 F.
Thu May 2 19:08:05 2019 68.0 F. 66.0 F.
Thu May 2 20:08:06 2019 67.0 F. 64.9 F.
Thu May 2 21:08:06 2019 65.0 F. 64.9 F.
Thu May 2 22:08:05 2019 65.0 F. 64.9 F.
Thu May 2 23:08:05 2019 65.0 F. 64.9 F.
Fri May 3 00:08:05 2019 65.0 F. 64.0 F.
Fri May 3 01:08:05 2019 64.0 F. 63.0 F.
Fri May 3 02:08:06 2019 64.0 F. 63.0 F.
Fri May 3 03:08:05 2019 62.0 F. 61.0 F.
Fri May 3 04:08:05 2019 61.0 F. 60.1 F.
Fri May 3 05:08:05 2019 60.0 F. 59.0 F.
Fri May 3 06:08:04 2019 60.0 F. 59.0 F.
Fri May 3 07:08:06 2019 59.0 F. 57.9 F.
Fri May 3 08:08:06 2019 58.0 F. 57.9 F.
Fri May 3 09:08:04 2019 57.0 F. 55.9 F.
Fri May 3 10:08:05 2019 57.0 F. 55.9 F.
Fri May 3 11:08:05 2019 58.0 F. 55.9 F.
Fri May 3 12:08:05 2019 59.0 F. 57.0 F.
Fri May 3 13:08:05 2019 60.0 F. 57.0 F.
Fri May 3 14:08:05 2019 61.0 F. 57.9 F.
Fri May 3 15:08:05 2019 62.0 F. 57.9 F.
Fri May 3 16:08:05 2019 63.0 F. 59.0 F.
Fri May 3 17:08:05 2019 63.0 F. 59.0 F.
Fri May 3 18:08:04 2019 64.0 F. 59.0 F.
Fri May 3 19:08:05 2019 63.0 F. 60.1 F.
Fri May 3 20:08:05 2019 62.0 F. 59.0 F.
Fri May 3 21:08:05 2019 61.0 F. 59.0 F.
Fri May 3 22:08:05 2019 61.0 F. 59.0 F.
Fri May 3 23:08:05 2019 61.0 F. 59.0 F.
Sat May 4 00:08:05 2019 61.0 F. 57.9 F.
Sat May 4 01:08:05 2019 60.0 F. 57.9 F.
Sat May 4 02:08:05 2019 60.0 F. 59.0 F.
Sat May 4 03:08:04 2019 60.0 F. 59.0 F.
Sat May 4 04:08:05 2019 60.0 F. 59.0 F.
Sat May 4 05:08:04 2019 61.0 F. 59.0 F.
Sat May 4 06:08:05 2019 60.0 F. 59.0 F.
Sat May 4 07:08:05 2019 59.0 F. 57.9 F.
Sat May 4 08:08:05 2019 58.0 F. 57.0 F.
Sat May 4 09:08:05 2019 58.0 F. 57.0 F.
Sat May 4 10:08:05 2019 58.0 F. 57.0 F.
Sat May 4 11:08:05 2019 57.0 F. 55.9 F.
Sat May 4 12:08:05 2019 57.0 F. 55.0 F.
Sat May 4 13:08:06 2019 57.0 F. 55.0 F.
Sat May 4 14:08:05 2019 58.0 F. 55.0 F.
Sat May 4 15:08:05 2019 59.0 F. 55.0 F.
Sat May 4 16:08:05 2019 59.0 F. 55.0 F.
Sat May 4 17:08:05 2019 60.0 F. 55.9 F.
Sat May 4 18:08:05 2019 59.0 F. 55.0 F.
Sat May 4 19:08:05 2019 59.0 F. 55.0 F.
Sat May 4 20:08:06 2019 59.0 F. 54.0 F.
Sat May 4 21:08:05 2019 59.0 F. 54.0 F.
Sat May 4 22:08:05 2019 58.0 F. 54.0 F.
Sat May 4 23:08:05 2019 56.0 F. 54.0 F.
Sun May 5 00:08:05 2019 56.0 F. 53.1 F.
Sun May 5 01:08:05 2019 53.0 F. 52.0 F.
Sun May 5 02:08:04 2019 51.0 F. 50.0 F.
Sun May 5 03:08:05 2019 50.0 F. 50.0 F.
Sun May 5 04:08:04 2019 50.0 F. 48.9 F.
Sun May 5 05:08:04 2019 50.0 F. 48.9 F.
Sun May 5 06:08:05 2019 48.0 F. 46.9 F.
Sun May 5 07:08:04 2019 51.0 F. 50.0 F.
Sun May 5 08:08:05 2019 55.0 F. 52.0 F.
Sun May 5 09:08:06 2019 60.0 F. 52.0 F.
Sun May 5 10:08:05 2019 63.0 F. 51.1 F.
Sun May 5 11:08:05 2019 64.0 F. 51.1 F.
Sun May 5 12:08:05 2019 65.0 F. 51.1 F.
Sun May 5 13:08:06 2019 66.0 F. 48.9 F.
Sun May 5 14:08:05 2019 69.0 F. 51.1 F.
Sun May 5 15:08:06 2019 69.0 F. 51.1 F.
Sun May 5 16:08:05 2019 70.0 F. 50.0 F.
Sun May 5 17:08:05 2019 70.0 F. 51.1 F.
Sun May 5 18:08:05 2019 71.0 F. 50.0 F.
Sun May 5 19:08:05 2019 70.0 F. 50.0 F.
Sun May 5 20:08:05 2019 65.0 F. 53.1 F.
Sun May 5 21:08:05 2019 61.0 F. 55.0 F.
Sun May 5 22:08:06 2019 58.0 F. 55.0 F.
Sun May 5 23:08:05 2019 56.0 F. 53.1 F.
Mon May 6 00:08:06 2019 54.0 F. 53.1 F.
Mon May 6 01:08:05 2019 54.0 F. 52.0 F.
Mon May 6 02:08:05 2019 52.0 F. 51.1 F.
Mon May 6 03:08:05 2019 52.0 F. 51.1 F.
Mon May 6 04:08:05 2019 53.0 F. 50.0 F.
Mon May 6 05:08:05 2019 50.0 F. 48.9 F.
Mon May 6 06:08:05 2019 49.0 F. 48.0 F.
Mon May 6 07:08:06 2019 52.0 F. 51.1 F.
Mon May 6 08:08:05 2019 58.0 F. 53.1 F.
Mon May 6 09:08:05 2019 65.0 F. 54.0 F.
Mon May 6 10:08:05 2019 67.0 F. 52.0 F.
Mon May 6 11:08:05 2019 67.0 F. 53.1 F.
Mon May 6 12:08:04 2019 67.0 F. 54.0 F.
Mon May 6 13:08:05 2019 70.0 F. 54.0 F.
Mon May 6 14:08:05 2019 72.0 F. 54.0 F.
Mon May 6 15:08:05 2019 74.0 F. 55.0 F.
Mon May 6 16:08:05 2019 74.0 F. 55.0 F.
Mon May 6 17:08:05 2019 75.0 F. 55.4 F.
Mon May 6 18:08:25 2019 72.0 F. 57.2 F.
Mon May 6 19:08:05 2019 72.0 F. 57.2 F.
Mon May 6 20:08:06 2019 66.0 F. 55.4 F.
Mon May 6 21:08:05 2019 63.0 F. 55.4 F.
Mon May 6 22:08:05 2019 63.0 F. 55.4 F.
Mon May 6 23:08:40 2019
Tue May 7 00:08:05 2019 63.0 F. 55.4 F.
Tue May 7 01:08:20 2019 63.0 F. 55.4 F.
Tue May 7 02:08:40 2019
Tue May 7 03:08:04 2019 63.0 F. 55.4 F.
Tue May 7 04:08:40 2019
Tue May 7 05:09:00 2019
Tue May 7 06:09:00 2019
Tue May 7 07:09:00 2019
Tue May 7 08:08:05 2019 62.0 F. 60.1 F.
Tue May 7 09:08:05 2019 63.0 F. 59.0 F.
Tue May 7 10:08:05 2019 65.0 F. 59.0 F.
Tue May 7 11:08:05 2019 70.0 F. 60.1 F.
Tue May 7 12:08:05 2019 72.0 F. 60.1 F.
Tue May 7 13:08:05 2019 73.0 F. 59.0 F.
Tue May 7 14:08:06 2019 74.0 F. 62.1 F.
Tue May 7 15:08:05 2019 76.0 F. 62.1 F.
Tue May 7 16:08:06 2019 78.0 F. 62.1 F.
Tue May 7 17:08:06 2019 79.0 F. 64.0 F.
Tue May 7 18:08:06 2019 77.0 F. 64.0 F.
Tue May 7 19:08:06 2019 76.0 F. 66.0 F.
Tue May 7 20:08:05 2019 72.0 F. 66.9 F.
Tue May 7 21:08:05 2019 69.0 F. 66.0 F.
Tue May 7 22:08:06 2019 67.0 F. 64.9 F.
Tue May 7 23:08:05 2019 67.0 F. 64.0 F.
Wed May 8 00:08:05 2019 67.0 F. 63.0 F.
Wed May 8 01:08:05 2019 67.0 F. 63.0 F.
Wed May 8 02:08:05 2019 67.0 F. 62.1 F.
Wed May 8 03:08:05 2019 66.0 F. 63.0 F.
Wed May 8 04:08:04 2019 66.0 F. 62.1 F.
Wed May 8 05:08:05 2019 64.0 F. 61.0 F.
Wed May 8 06:08:05 2019 64.0 F. 61.0 F.
Wed May 8 07:08:04 2019 65.0 F. 61.0 F.
Wed May 8 08:08:05 2019 68.0 F. 62.1 F.
Wed May 8 09:08:11 2019 70.0 F. 63.0 F.
Wed May 8 10:08:37 2019
Wed May 8 11:08:06 2019 78.0 F. 64.0 F.
Wed May 8 12:08:06 2019 80.0 F. 64.0 F.
Wed May 8 13:08:06 2019 80.0 F. 63.0 F.
Wed May 8 14:08:05 2019 81.0 F. 64.0 F.
Wed May 8 15:08:05 2019 81.0 F. 64.0 F.
Wed May 8 16:08:06 2019 81.0 F. 63.0 F.
Wed May 8 17:08:05 2019 80.0 F. 62.1 F.
Wed May 8 18:08:05 2019 79.0 F. 64.0 F.
Wed May 8 19:08:06 2019 78.0 F. 63.0 F.
Wed May 8 20:08:19 2019 76.0 F. 63.0 F.
Wed May 8 21:08:05 2019 74.0 F. 64.0 F.
Wed May 8 22:08:06 2019 75.0 F. 62.1 F.
Wed May 8 23:08:05 2019 66.0 F. 64.9 F.
Thu May 9 00:08:05 2019 66.0 F. 64.9 F.
Thu May 9 01:08:05 2019 67.0 F. 64.9 F.
Thu May 9 02:08:05 2019 68.0 F. 66.0 F.
Thu May 9 03:08:05 2019 67.0 F. 64.9 F.
Thu May 9 04:08:05 2019 68.0 F. 66.0 F.
Thu May 9 05:08:06 2019 68.0 F. 64.0 F.
Thu May 9 06:08:05 2019 67.0 F. 64.0 F.
Thu May 9 07:08:18 2019 67.0 F. 63.0 F.
Thu May 9 08:08:05 2019 67.0 F. 63.0 F.
Thu May 9 09:08:06 2019 67.0 F. 62.1 F.
Thu May 9 10:08:05 2019 67.0 F. 63.0 F.
Thu May 9 11:08:05 2019 69.0 F. 63.0 F.
Thu May 9 12:08:24 2019 69.0 F. 63.0 F.
Thu May 9 13:08:40 2019
Thu May 9 14:08:40 2019
Thu May 9 15:08:40 2019
Thu May 9 16:08:40 2019
Thu May 9 17:08:40 2019
Thu May 9 18:08:40 2019
Thu May 9 19:08:05 2019 63.0 F. 60.1 F.
Thu May 9 20:08:06 2019 62.0 F. 57.9 F.
Thu May 9 21:08:05 2019 60.0 F. 55.9 F.
Thu May 9 22:08:06 2019 59.0 F. 55.0 F.
Thu May 9 23:08:05 2019 58.0 F. 53.1 F.
Fri May 10 00:08:05 2019 57.0 F. 52.0 F.
Fri May 10 01:08:05 2019 55.0 F. 48.0 F.
Fri May 10 02:08:04 2019 55.0 F. 48.0 F.
Fri May 10 03:08:04 2019 53.0 F. 46.0 F.
Fri May 10 04:08:04 2019 52.0 F. 46.9 F.
Fri May 10 05:08:05 2019 52.0 F. 46.0 F.
Fri May 10 06:08:05 2019 51.0 F. 45.0 F.
Fri May 10 07:08:05 2019 51.0 F. 44.1 F.
Fri May 10 08:08:05 2019 51.0 F. 44.1 F.
Fri May 10 09:08:11 2019 51.0 F. 43.0 F.
Fri May 10 10:08:05 2019 52.0 F. 42.1 F.
Fri May 10 11:08:05 2019 54.0 F. 42.1 F.
Fri May 10 12:08:05 2019 56.0 F. 43.0 F.
Fri May 10 13:08:05 2019 55.0 F. 43.0 F.
Fri May 10 14:08:05 2019 57.0 F. 44.1 F.
Fri May 10 15:08:06 2019 58.0 F. 45.0 F.
Fri May 10 16:08:06 2019 59.0 F. 46.0 F.
Fri May 10 17:08:05 2019 58.0 F. 45.0 F.
Fri May 10 18:08:05 2019 57.0 F. 44.1 F.
Fri May 10 19:08:05 2019 56.0 F. 44.1 F.
Fri May 10 20:08:05 2019 54.0 F. 44.1 F.
Fri May 10 21:08:06 2019 52.0 F. 46.9 F.
Fri May 10 22:08:05 2019 52.0 F. 46.9 F.
Fri May 10 23:08:05 2019 51.0 F. 46.9 F.
Sat May 11 00:08:06 2019 51.0 F. 46.9 F.
Sat May 11 01:08:05 2019 52.0 F. 48.0 F.
Sat May 11 02:08:05 2019 53.0 F. 46.0 F.
Sat May 11 03:08:05 2019 52.0 F. 44.1 F.
Sat May 11 04:08:05 2019 52.0 F. 44.1 F.
Sat May 11 05:08:05 2019 52.0 F. 44.1 F.
Sat May 11 06:08:05 2019 52.0 F. 45.0 F.
Sat May 11 07:08:05 2019 52.0 F. 45.0 F.
Sat May 11 08:08:04 2019 52.0 F. 46.0 F.
Sat May 11 09:08:05 2019 53.0 F. 46.0 F.
Sat May 11 10:08:05 2019 54.0 F. 46.9 F.
Sat May 11 11:08:40 2019
Sat May 11 12:08:40 2019
Sat May 11 13:08:40 2019
Sat May 11 14:08:40 2019
Sat May 11 15:08:40 2019
Sat May 11 16:08:15 2019 51.0 F. 50.0 F.
Sat May 11 17:08:15 2019 51.0 F. 48.9 F.
Sat May 11 18:08:15 2019 51.0 F. 48.9 F.
Sat May 11 19:08:16 2019 51.0 F. 50.0 F.
Sat May 11 20:08:15 2019 51.0 F. 48.9 F.
Sat May 11 21:08:15 2019 51.0 F. 50.0 F.
Sat May 11 22:08:15 2019 50.0 F. 48.9 F.
Sat May 11 23:08:15 2019 51.0 F. 48.9 F.
Sun May 12 00:08:15 2019 51.0 F. 50.0 F.
Sun May 12 01:08:15 2019 50.0 F. 50.0 F.
Sun May 12 02:08:15 2019 50.0 F. 48.9 F.
Sun May 12 03:08:15 2019 50.0 F. 48.9 F.
Sun May 12 04:08:15 2019 50.0 F. 48.9 F.
Sun May 12 05:08:15 2019 50.0 F. 50.0 F.
Sun May 12 06:08:15 2019 50.0 F. 50.0 F.
Sun May 12 07:08:15 2019 51.0 F. 50.0 F.
Sun May 12 08:08:14 2019 51.0 F. 50.0 F.
Sun May 12 09:08:15 2019 51.0 F. 50.0 F.
Sun May 12 10:08:15 2019 52.0 F. 50.0 F.
Sun May 12 11:08:15 2019 51.0 F. 50.0 F.
Sun May 12 12:08:15 2019 52.0 F. 50.0 F.
Sun May 12 13:08:15 2019 51.0 F. 50.0 F.
Sun May 12 14:08:15 2019 55.0 F. 50.0 F.
Sun May 12 15:08:15 2019 54.0 F. 48.0 F.
Sun May 12 16:08:15 2019 53.0 F. 48.0 F.
Sun May 12 17:08:15 2019 55.0 F. 48.9 F.
Sun May 12 18:08:15 2019 55.0 F. 48.9 F.
Sun May 12 19:08:08 2019 56.0 F. 48.9 F.
Sun May 12 20:08:05 2019 53.0 F. 48.9 F.
Sun May 12 21:08:05 2019 53.0 F. 48.9 F.
Sun May 12 22:08:05 2019 53.0 F. 48.9 F.
Sun May 12 23:08:04 2019 52.0 F. 48.9 F.
Mon May 13 00:08:05 2019 49.0 F. 46.9 F.
Mon May 13 01:08:05 2019 49.0 F. 46.9 F.
Mon May 13 02:08:05 2019 48.0 F. 46.9 F.
Mon May 13 03:08:04 2019 49.0 F. 46.9 F.
Mon May 13 04:08:04 2019 49.0 F. 48.0 F.
Mon May 13 05:08:05 2019 49.0 F. 48.0 F.
Mon May 13 06:08:05 2019 49.0 F. 46.9 F.
Mon May 13 07:08:05 2019 50.0 F. 46.9 F.
Mon May 13 08:08:05 2019 50.0 F. 46.0 F.
Mon May 13 09:08:05 2019 52.0 F. 45.0 F.
Mon May 13 10:08:05 2019 53.0 F. 45.0 F.
Mon May 13 11:08:05 2019 54.0 F. 43.0 F.
Mon May 13 12:08:05 2019 56.0 F. 43.0 F.
Mon May 13 13:08:05 2019 58.0 F. 44.1 F.
Mon May 13 14:08:05 2019 59.0 F. 44.1 F.
Mon May 13 15:08:05 2019 61.0 F. 45.0 F.
Mon May 13 16:08:06 2019 60.0 F. 43.0 F.
Mon May 13 17:08:06 2019 61.0 F. 43.0 F.
Mon May 13 18:08:05 2019 62.0 F. 44.1 F.
Mon May 13 19:08:05 2019 60.0 F. 44.1 F.
Mon May 13 20:08:06 2019 55.0 F. 46.9 F.
Mon May 13 21:08:05 2019 53.0 F. 46.9 F.
Mon May 13 22:08:05 2019 48.0 F. 46.0 F.
Mon May 13 23:08:06 2019 48.0 F. 46.0 F.
Tue May 14 00:08:05 2019 47.0 F. 45.0 F.
Tue May 14 01:08:06 2019 47.0 F. 46.0 F.
Tue May 14 02:08:05 2019 45.0 F. 44.1 F.
Tue May 14 03:08:05 2019 45.0 F. 43.0 F.
Tue May 14 04:08:05 2019 43.0 F. 42.1 F.
Tue May 14 05:08:05 2019 43.0 F. 41.0 F.
Tue May 14 06:08:05 2019 43.0 F. 42.1 F.
Tue May 14 07:08:05 2019 45.0 F. 44.1 F.
Tue May 14 08:08:05 2019 52.0 F. 48.9 F.
Tue May 14 09:08:05 2019 59.0 F. 48.9 F.
Tue May 14 10:08:40 2019
Tue May 14 11:09:00 2019
Tue May 14 12:09:00 2019
Tue May 14 13:08:05 2019 68.0 F. 46.0 F.
Tue May 14 14:08:05 2019 68.0 F. 45.0 F.
Tue May 14 15:08:04 2019 70.0 F. 48.0 F.
Tue May 14 16:08:06 2019 69.0 F. 46.9 F.
Tue May 14 17:08:05 2019 70.0 F. 46.0 F.
Tue May 14 18:08:06 2019 69.0 F. 48.0 F.
Tue May 14 19:08:05 2019 67.0 F. 51.1 F.
Tue May 14 20:08:06 2019 63.0 F. 50.0 F.
Tue May 14 21:08:06 2019 59.0 F. 51.1 F.
Tue May 14 22:08:06 2019 56.0 F. 50.0 F.
Tue May 14 23:08:06 2019 56.0 F. 48.9 F.
Wed May 15 00:08:05 2019 55.0 F. 48.9 F.
Wed May 15 01:08:05 2019 55.0 F. 48.9 F.
Wed May 15 02:08:05 2019 57.0 F. 48.9 F.
Wed May 15 03:08:05 2019 57.0 F. 48.9 F.
Wed May 15 04:08:05 2019 55.0 F. 52.0 F.
Wed May 15 05:08:05 2019 55.0 F. 52.0 F.
Wed May 15 06:08:06 2019 54.0 F. 53.1 F.
Wed May 15 07:08:06 2019 55.0 F. 54.0 F.
Wed May 15 08:08:06 2019 56.0 F. 55.0 F.
Wed May 15 09:08:06 2019 58.0 F. 55.9 F.
Wed May 15 10:08:05 2019 59.0 F. 57.0 F.
Wed May 15 11:08:06 2019 64.0 F. 59.0 F.
Wed May 15 12:08:20 2019 66.0 F. 60.1 F.
Wed May 15 13:08:05 2019 67.0 F. 61.0 F.
Wed May 15 14:08:05 2019 68.0 F. 61.0 F.
Wed May 15 15:08:05 2019 69.0 F. 62.1 F.
Wed May 15 16:08:06 2019 71.0 F. 63.0 F.
Wed May 15 17:08:05 2019 72.0 F. 62.1 F.
Wed May 15 18:08:06 2019 73.0 F. 63.0 F.
Wed May 15 19:08:06 2019 71.0 F. 63.0 F.
Wed May 15 20:08:05 2019 67.0 F. 63.0 F.
Wed May 15 21:08:05 2019 67.0 F. 63.0 F.
Wed May 15 22:08:08 2019 63.0 F. 61.0 F.
Wed May 15 23:08:05 2019 62.0 F. 60.1 F.
Thu May 16 00:08:05 2019 60.0 F. 59.0 F.
Thu May 16 01:08:05 2019 59.0 F. 59.0 F.
Thu May 16 02:08:05 2019 59.0 F. 59.0 F.
Thu May 16 03:08:05 2019 59.0 F. 59.0 F.
Thu May 16 04:08:05 2019 57.0 F. 57.0 F.
Thu May 16 05:08:05 2019 58.0 F. 57.9 F.
Thu May 16 06:08:06 2019 57.0 F. 57.0 F.
Thu May 16 07:08:05 2019 61.0 F. 60.1 F.
Thu May 16 08:08:05 2019 66.0 F. 63.0 F.
Thu May 16 09:08:05 2019 70.0 F. 64.9 F.
Thu May 16 10:08:04 2019 74.0 F. 66.0 F.
Thu May 16 11:08:05 2019 78.0 F. 68.0 F.
Thu May 16 12:08:06 2019 80.0 F. 69.1 F.
Thu May 16 13:08:05 2019 80.0 F. 69.1 F.
Thu May 16 14:08:05 2019 84.0 F. 70.0 F.
Thu May 16 15:08:05 2019 82.0 F. 68.0 F.
Thu May 16 16:08:05 2019 84.0 F. 69.1 F.
Thu May 16 17:08:06 2019 85.0 F. 66.9 F.
Thu May 16 18:08:05 2019 84.0 F. 66.9 F.
Thu May 16 19:08:05 2019 81.0 F. 68.0 F.
Thu May 16 20:08:05 2019 77.0 F. 68.0 F.
Thu May 16 21:08:06 2019 74.0 F. 66.0 F.
Thu May 16 22:08:05 2019 75.0 F. 64.9 F.
Thu May 16 23:08:05 2019 76.0 F. 64.0 F.
Fri May 17 00:08:05 2019 77.0 F. 64.0 F.
Fri May 17 01:08:06 2019 75.0 F. 64.0 F.
Fri May 17 02:08:05 2019 75.0 F. 64.0 F.
Fri May 17 03:08:05 2019 71.0 F. 63.0 F.
Fri May 17 04:08:04 2019 70.0 F. 63.0 F.
Fri May 17 05:08:05 2019 68.0 F. 63.0 F.
Fri May 17 06:08:04 2019 66.0 F. 63.0 F.
Fri May 17 07:08:06 2019 66.0 F. 64.9 F.
Fri May 17 08:08:05 2019 72.0 F. 64.9 F.
Fri May 17 09:08:05 2019 76.0 F. 64.9 F.
Fri May 17 10:08:05 2019 79.0 F. 64.9 F.
Fri May 17 11:08:06 2019 81.0 F. 64.0 F.
Fri May 17 12:08:06 2019 82.0 F. 64.9 F.
Fri May 17 13:08:06 2019 84.0 F. 64.0 F.
Fri May 17 14:08:06 2019 85.0 F. 61.0 F.
Fri May 17 15:08:05 2019 85.0 F. 66.9 F.
Fri May 17 16:08:06 2019 85.0 F. 64.9 F.
Fri May 17 17:08:05 2019 84.0 F. 62.1 F.
Fri May 17 18:08:05 2019 83.0 F. 63.0 F.
Fri May 17 19:08:06 2019 81.0 F. 62.1 F.
Fri May 17 20:08:06 2019 74.0 F. 64.0 F.
Fri May 17 21:08:04 2019 71.0 F. 63.0 F.
Fri May 17 22:08:06 2019 71.0 F. 63.0 F.
Fri May 17 23:08:05 2019 69.0 F. 63.0 F.
Sat May 18 00:08:05 2019 69.0 F. 62.1 F.
Sat May 18 01:08:05 2019 66.0 F. 61.0 F.
Sat May 18 02:08:05 2019 68.0 F. 62.1 F.
Sat May 18 03:08:06 2019 65.0 F. 61.0 F.
Sat May 18 04:08:04 2019 65.0 F. 62.1 F.
Sat May 18 05:08:05 2019 62.0 F. 61.0 F.
Sat May 18 06:08:05 2019 61.0 F. 60.1 F.
Sat May 18 07:08:05 2019 68.0 F. 64.0 F.
Sat May 18 08:08:05 2019 73.0 F. 64.0 F.
Sat May 18 09:08:05 2019 76.0 F. 64.9 F.
Sat May 18 10:08:20 2019 79.0 F. 64.9 F.
Sat May 18 11:08:05 2019 81.0 F. 64.0 F.
Sat May 18 12:08:05 2019 82.0 F. 62.1 F.
Sat May 18 13:08:40 2019
Sat May 18 14:08:40 2019
Sat May 18 15:08:40 2019
Sat May 18 16:08:40 2019
Sat May 18 17:08:08 2019 83.0 F. 59.0 F.
Sat May 18 18:08:05 2019 83.0 F. 59.0 F.
Sat May 18 19:08:05 2019 79.0 F. 57.9 F.
Sat May 18 20:08:05 2019 77.0 F. 60.1 F.
Sat May 18 21:08:06 2019 75.0 F. 60.1 F.
Sat May 18 22:08:06 2019 75.0 F. 61.0 F.
Sat May 18 23:08:06 2019 67.0 F. 64.9 F.
Sun May 19 00:08:05 2019 67.0 F. 66.0 F.
Sun May 19 01:08:05 2019 67.0 F. 64.0 F.
Sun May 19 02:08:05 2019 67.0 F. 63.0 F.
Sun May 19 03:08:06 2019 66.0 F. 62.1 F.
Sun May 19 04:08:04 2019 65.0 F. 62.1 F.
Sun May 19 05:08:05 2019 65.0 F. 62.1 F.
Sun May 19 06:08:05 2019 65.0 F. 62.1 F.
Sun May 19 07:08:06 2019 64.0 F. 63.0 F.